Weather in Nelemnoye

Russia / Sakha (Yakutia) Republic     65°29′51″N   151°04′36″E
temp.,
°C
wind,
m/s
gust,
m/s
humid.,
%
clouds,
%
prec.,
mm/h
press.,
hPa
HPBL,
m
16 june, wed
wed1623:00+14s456879 0.0 100057
02:00+11sse58795 0.0 99996
05:00+12sse51073100 0.0 999256
08:00+16nw456173 0.1 1000611
11:00+18nnw665298 0.1 10001324
14:00+14nnw101063100 0.1 1001937
17:00+6n101386100 0.6 1005692
20:00+6n5787100 2.4 1006642
17 june, thu
thu1723:00+6wsw3286100 4.8 1007256
02:00+5ssw338913 0.1 100770
05:00+6ssw238459 0.1 1008165
08:00+9w34655 0.0 1009755
11:00+13nw911377 0.4 10092194
14:00+14nnw10123329 0.0 10092107
17:00+15nnw7103384 0.0 10092066
20:00+15n583540 0.0 10091568
18 june, fri
fri1823:00+12nne1151100 0.0 101010
02:00+12ssw454482 0.0 101086
05:00+12ssw694495 0.0 1008189
08:00+15sse3346100 0.0 100873
11:00+21nw41138100 0.1 10071982
14:00+20n101353100 0.1 10081559
17:00+19n8946100 0.1 10101347
20:00+17nne7841100 0.0 1011890
19 june, sat
sat1923:00+13ne5754100 0.0 1013345
02:00+10n3577100 0.0 1014224
05:00+10n4670100 0.0 1015358
08:00+12nne565297 0.0 10151032
11:00+14n784455 0.0 10151605
14:00+16n673557 0.0 10142042
17:00+16nne77327 0.0 10132070
20:00+15nne78335 0.0 10132050
20 june, sun
sun2023:00+9ne69616 0.0 1014265
02:00+5ne46750 0.0 1015111
05:00+7n46674 0.0 1016258
08:00+11nne56486 0.0 10161014
11:00+13ene4647100 0.0 10161685
14:00+15ese3442100 0.0 10161806
17:00+16ese344072 0.0 10161651
20:00+16se66394 0.0 10161760